Regional Weather Roundup
Issued by NWS

Home | Current Version | Previous Version | Text Only | Print | Product List | Glossary On
Versions: 1 2 3 4 5 6 7 8 9 10 11 12 13 14 15 16 17 18 19 20 21 22 23 24 25 26 27
000
ASUS42 KTBW 210717
RWRFL
FLORIDA REGIONAL WEATHER ROUNDUP
NATIONAL WEATHER SERVICE TAMPA BAY RUSKIN FL
200 AM EST SUN JAN 21 2018

NOTE: "FAIR" INDICATES FEW OR NO CLOUDS BELOW 12,000 FEET WITH NO
SIGNIFICANT WEATHER AND/OR OBSTRUCTIONS TO VISIBILITY.

FLZ001>010-012>015-112-114-115-210800-
PANHANDLE FLORIDA

CITY           SKY/WX    TMP DP  RH WIND       PRES   REMARKS
PENSACOLA      FAIR      53  46  77 E6        30.22S
PENSACOLA NAS  FAIR      48  45  89 CALM      30.21S
MILTON NAS     FAIR      43  41  93 CALM      30.22
CRESTVIEW      FAIR      39  37  92 CALM      30.24F
DUKE FIELD     FAIR      38  36  93 CALM      30.22F
VALPARAISO     CLEAR     45  41  86 E3        30.22F
MARY ESTHER    FAIR      46  43  88 E5        30.21S WCI  44
PANAMA CITY    FAIR      46  41  82 CALM      30.23F
TYNDALL AFB    MOCLDY    46  41  82 CALM      30.24F
APALACHICOLA   FAIR      44  40  85 NE3       30.24R

STATION/POSITION SKY/WX   TEMP    WIND        PRES    WAVE   SWELL
                          AIR SEA DIR/SP/G            HT/PER HT/PER
                          (F)     (DEG/KT/KT) (MB)    (FT/S) (FT/S)
29.2N   88.2W              64 62  120/ 12/ 14 1022.5
28.8N   86.0W              64 69  100/  8/ 10 1022.8F   2/ 4   2/ 7
PANAMA CITY BEAC           52 55   80/  3/  5 1024.2R
TOWER C                    60      50/  6/  7 1024.1F

$$
FLZ011-016>038-118-127-128-134-139-239-210800-
NORTH FLORIDA

CITY           SKY/WX    TMP DP  RH WIND       PRES   REMARKS
MARIANNA       FAIR      48  42  80 CALM      30.24F
TALLAHASSEE    FAIR      41  34  76 CALM      30.24F
PERRY          FAIR      46  40  77 CALM      30.25F
LIVE OAK       MOCLDY    45  43  93 CALM      30.26S
CROSS CITY     FAIR      46  41  82 CALM      30.29F
LAKE CITY      FAIR      45  41  87 CALM      30.25S
GAINESVILLE    FAIR      48  41  76 CALM      30.28S
WILLISTON        N/A     50  45  81 CALM      30.25F
PALATKA        MOCLDY    48  41  76 CALM      30.26S
MAYPORT NAS    FAIR      48  45  89 CALM      30.25F
JACKSONVILLE   CLOUDY    47  41  80 W3        30.25S
JAX NAS        CLOUDY    51  41  68 CALM      30.27R
JAX CECIL        N/A     46  43  87 MISG      30.26R
FERNANDINA BEA FAIR      48  43  81 CALM      30.23F
ST AUGUSTINE   FAIR      50  39  66 CALM      30.27R
PALM COAST     FAIR      51  44  77 N3        30.25S

STATION/POSITION SKY/WX   TEMP    WIND        PRES    WAVE   SWELL
                          AIR SEA DIR/SP/G            HT/PER HT/PER
                          (F)     (DEG/KT/KT) (MB)    (FT/S) (FT/S)
SHELL POINT      NOT AVBL
KEATON BEACH               49      50/  4/  4 1023.4F
CEDAR KEY                  52      20/  5/  6 1023.8F
FERNANDINA                         CALM  /  2   N/A
30.7N   81.3W                 49                N/A     1/12
MAYPORT                    50 50   CALM  /  1 1024.1F
31.4N   80.9W              51 51  230/  4/  6 1024.3F   1/10   2/10
ST AUGUSTINE               52 51  330/  5/  5 1024.8R

$$
FLZ040-043>046-052-053-057-058-063-144-210800-
INTERIOR CENTRAL FLORIDA

CITY           SKY/WX    TMP DP  RH WIND       PRES   REMARKS
OCALA          MOCLDY    51  44  77 CALM      30.25F
LEESBURG       FAIR      55  46  71 CALM      30.25S
SANFORD        FAIR      55  48  77 W6        30.25R
ORLANDO EXEC   FAIR      58  50  75 N3        30.24R
ORLANDO INTL   CLOUDY    57  51  80 NE3       30.23F
KISSIMMEE      FAIR      59  51  75 NE6       30.22F
WINTER HAVEN   FAIR      57  51  80 NE5       30.22F
LAKELAND       FAIR      57  50  77 CALM      30.23S
BARTOW         FAIR      57  52  82 CALM      30.23R
SEBRING        FAIR      58  54  84 NE3       30.21F
OKEECHOBEE     FAIR      57  55  94 N5        30.20S

$$
FLZ041-047-054-059-064-141-147-210800-
EAST CENTRAL FLORIDA

CITY           SKY/WX    TMP DP  RH WIND       PRES   REMARKS
DAYTONA BEACH  CLOUDY    54  51  90 CALM      30.24S
DELAND         MOCLDY    54  48  82 NW5       30.24S
JFK SPACE CTR  FAIR      58  58 100 CALM      30.22S
CAPE CANAVERAL FAIR      59  55  86 NW3       30.21F
PATRICK AFB    FAIR      59  58  94 NW8       30.22S
MELBOURNE      MOCLDY    62  57  83 NW7       30.23R
VERO BEACH     FAIR      60  58  92 NW3       30.20R
FT PIERCE      FAIR      58  58 100 N3        30.19F
STUART         FAIR      55  55 100 N5        30.20F

STATION/POSITION SKY/WX   TEMP    WIND        PRES    WAVE   SWELL
                          AIR SEA DIR/SP/G            HT/PER HT/PER
                          (F)     (DEG/KT/KT) (MB)    (FT/S) (FT/S)
28.5N   80.2W              70 72  110/  8/ 10 1022.9F   3/10   2/10
TRIDENT PIER               58 60  350/  3/  5 1024.7F
28.4N   80.5W                 59                N/A     2/11   2/11
27.5N   80.2W                 63                N/A     3/11   2/11

$$
FLZ050-056-061-142-242-148-248-149-249-151-251-155-255-
160-260-210800-
WEST CENTRAL FLORIDA

CITY           SKY/WX    TMP DP  RH WIND       PRES   REMARKS
CRYSTAL RIVER  FAIR      52  45  76 CALM      30.24F
INVERNESS      FAIR      52  48  87 CALM      30.25F
BROOKSVILLE    FAIR      55  48  77 NE3       30.24F
CLEARWATER AIR FAIR      57  48  72 NE5       30.21F
ST PETE CLEARW FAIR      57  52  83 N6        30.22F
TAMPA INTL     CLOUDY    61  50  67 NE5       30.22F
TAMPA EXEC     FAIR      55  52  88 CALM      30.24R
PLANT CITY     FAIR      59  54  82 CALM      30.24S
MACDILL AFB    PTCLDY    59  52  77 NE5       30.20F
PETER O KNIGHT CLOUDY    59  52  77 NE7       30.22S
ST PETERSBURG  FAIR      59  52  77 N7        30.20F
SARASOTA       FAIR      59  54  83 E5        30.19F
VENICE           N/A     61  55  82 NE8       30.21R

STATION/POSITION SKY/WX   TEMP    WIND        PRES    WAVE   SWELL
                          AIR SEA DIR/SP/G            HT/PER HT/PER
                          (F)     (DEG/KT/KT) (MB)    (FT/S) (FT/S)
27.3N   84.2W                 70                N/A     2/ 4
CLEARWATER BEACH           58 54   10/  5/ 10 1023.6R
MIDDLE TAMPA BAY           57      20/  5/  6 1023.2S
VENICE                     60 57   40/  5/  7 1022.8S

$$
FLZ066-069-070-075>078-162-262-165-265-210800-
SOUTHWEST FLORIDA AND KEYS

CITY           SKY/WX    TMP DP  RH WIND       PRES   REMARKS
PUNTA GORDA    FAIR      59  54  83 NE3       30.22S
FT MYERS       FAIR      62  57  83 N5        30.19S
SOUTHWEST INTL FAIR      61  58  90 E3        30.19S
NAPLES         FAIR      62  58  86 NE5       30.17F
MARCO ISLAND   FAIR      63  58  83 N7        30.19F
IMMOKALEE      FAIR      59  57  94 CALM      30.20F
MARATHON       FAIR      66  61  84 NE8       30.13F
KEY WEST NAS   FAIR      65  65 100 NE9       30.15S
KEY WEST INTL  FAIR      66  62  87 NE9       30.15S

STATION/POSITION SKY/WX   TEMP    WIND        PRES    WAVE   SWELL
                          AIR SEA DIR/SP/G            HT/PER HT/PER
                          (F)     (DEG/KT/KT) (MB)    (FT/S) (FT/S)
NAPLES                        61   70/  3/  5 1021.7F
DRY TORTUGAS               69      70/ 12/ 14 1021.0S
SAND KEY                   67                 1021.2F
LONG KEY                   64      50/  8       N/A
MOLASSES REEF              73 73  110/ 15/ 16 1021.2F

$$
FLZ067-068-071>074-168-172>174-210800-
SOUTHEAST FLORIDA

CITY           SKY/WX    TMP DP  RH WIND       PRES   REMARKS
W PALM BEACH   MOCLDY    69  60  73 E10       30.17F
FT LAUDER-EXEC FAIR      70  63  78 E13       30.17S
FT LAUDERDALE  MOCLDY    70  64  81 E14       30.16F
POMPANO BEACH  FAIR      72  64  76 E12       30.17F
PEMBROKE PINES FAIR      71  62  73 E12       30.17F
OPA LOCKA      FAIR      69  63  81 E10       30.17F
MIAMI          CLOUDY    72  64  76 E8        30.17F
WEST KENDALL   FAIR      65  61  87 E3        30.17F
HOMESTEAD      MOCLDY    68  68 100 E6        30.16F

STATION/POSITION SKY/WX   TEMP    WIND        PRES    WAVE   SWELL
                          AIR SEA DIR/SP/G            HT/PER HT/PER
                          (F)     (DEG/KT/KT) (MB)    (FT/S) (FT/S)
PORT EVERGLADES            72      90/ 11/ 15 1021.5
VIRGINIA KEY               72 70   60/ 12/ 14 1021.5R
LAKE WORTH                 71 72  110/ 15/ 17 1022.5F
FOWEY ROCKS                72 73   70/ 18/ 19 1021.7F
SETTLEMENT POINT           67      80/  9/ 11 1022.7F

$$





USA.gov is the U.S. government's official web portal to all federal, state and local government web resources and services.